TimeCST,TemperatureF,Dew PointF,Humidity,Sea Level PressureIn,VisibilityMPH,Wind Direction,Wind SpeedMPH,Gust SpeedMPH,PrecipitationIn,Events,Conditions,WindDirDegrees,DateUTC
6:00 AM,76,72,83,29.83,12,Calm,Calm,,,,Overcast,,2013-07-20 12:00:00
6:00 AM,77.0,71.6,83,29.82,6.2,Calm,Calm,-,N/A,,Overcast,0,2013-07-20 12:00:00
7:00 AM,80.6,73.4,79,29.83,6.2,East,3.5,-,N/A,,Mostly Cloudy,90,2013-07-20 13:00:00
8:00 AM,84.2,73.4,70,29.85,6.2,East,6.9,-,N/A,,Mostly Cloudy,90,2013-07-20 14:00:00
9:00 AM,86,72,55,29.88,12,East,9.2,,,,Scattered Clouds,80,2013-07-20 15:00:00
9:00 AM,86.0,71.6,62,29.87,6.2,East,9.2,-,N/A,,Mostly Cloudy,80,2013-07-20 15:00:00
10:00 AM,86.0,73.4,66,29.86,6.2,North,4.6,-,N/A,,Mostly Cloudy,10,2013-07-20 16:00:00
11:00 AM,89.6,73.4,59,29.86,6.2,SE,6.9,-,N/A,,Scattered Clouds,140,2013-07-20 17:00:00
12:00 PM,91,73,47,29.85,12,ESE,5.8,,,,Partly Cloudy,120,2013-07-20 18:00:00
12:00 PM,91.4,73.4,55,29.83,6.2,ESE,5.8,-,N/A,,Scattered Clouds,120,2013-07-20 18:00:00
1:00 PM,91.4,71.6,52,29.80,6.2,NNE,5.8,-,N/A,,Mostly Cloudy,30,2013-07-20 19:00:00
2:00 PM,89.6,73.4,59,29.78,6.2,NNW,5.8,-,N/A,,Mostly Cloudy,340,2013-07-20 20:00:00
3:00 PM,83,76,73,29.78,12,West,9.2,,,,Overcast,280,2013-07-20 21:00:00
3:00 PM,82.4,75.2,79,29.77,6.2,West,9.2,-,N/A,,Mostly Cloudy,280,2013-07-20 21:00:00
4:00 PM,82.4,75.2,79,29.78,6.2,West,9.2,-,N/A,,Mostly Cloudy,270,2013-07-20 22:00:00
5:00 PM,82.4,75.2,79,29.78,6.2,WNW,4.6,-,N/A,,Mostly Cloudy,290,2013-07-20 23:00:00
6:00 PM,82,76,76,29.83,12,SW,4.6,,,,Overcast,230,2013-07-21 00:00:00
6:00 PM,82.4,75.2,79,29.82,6.2,SW,4.6,-,N/A,,Mostly Cloudy,230,2013-07-21 00:00:00
7:00 PM,80.6,75.2,84,29.83,6.2,South,3.5,-,N/A,,Scattered Clouds,170,2013-07-21 01:00:00
8:00 PM,77.0,73.4,89,29.84,6.2,SSE,5.8,-,N/A,,Scattered Clouds,160,2013-07-21 02:00:00